Location: Newark
(49.3000°N, 9.4667°E)
Time: 20:41:53
(UTC+00:00)

Tiros 1 - Pass Details

Date: 24 May 2019
Orbit: 631 x 664 km, 48.4° (Epoch: 18 June)

Event Time Altitude Azimuth Distance (km) Brightness Sun altitude
Rises 10:37:50 0° 240° (WSW) 2,921 10.6 60.3°
Reaches altitude 10° 10:40:11 10° 236° (SW) 2,019 9.9 60.4°
Maximum altitude 10:44:43 54° 159° (SSE) 781 10.4 60.7°
Drops below altitude 10° 10:49:18 10° 83° (E) 2,045 9.9 60.9°
Sets 10:51:41 0° 79° (E) 2,962 10.6 60.9°
